Regional Weather Roundup
Issued by NWS

Home | Current Version | Previous Version | Text Only | Print | Product List | Glossary Off
Versions: 1 2 3 4 5 6 7 8 9 10 11 12 13 14 15 16 17 18 19 20 21 22 23 24 25 26 27 28 29 30 31 32 33 34 35 36 37 38 39 40 41 42 43 44 45 46 47 48 49 50

000
ASUS43 KFSD 251402
RWRSD

WEATHER ROUNDUP FOR SOUTH DAKOTA
NATIONAL WEATHER SERVICE SIOUX FALLS SD
900 AM CDT MON MAY 25 2015

NOTE: "FAIR" INDICATES FEW OR NO CLOUDS BELOW 12,000 FEET WITH NO
SIGNIFICANT WEATHER AND/OR OBSTRUCTIONS TO VISIBILITY.


SDZ001>005-009-010-012>017-251500-
NORTHWEST AND NORTH CENTRAL SOUTH DAKOTA

CITY           SKY/WX    TMP DP  RH WIND       PRES   REMARKS
FAITH            N/A     54  52  93 NE9       29.82R
MOBRIDGE       LGT RAIN  58  57  97 NE7       29.80R FOG
$$

SDZ012>016-024>037-041>051-057-063-072>074-251500-
SOUTHWEST AND SOUTH CENTRAL SOUTH DAKOTA

CITY           SKY/WX    TMP DP  RH WIND       PRES   REMARKS
RAPID CTY ARPT CLOUDY    54  50  86 N10       29.84R
PIERRE         CLOUDY    57  56  96 NE8       29.77S
CUSTER         PTSUNNY   50  43  77 N5        29.87R
ELLSWORTH AFB  CLOUDY    53  52  97 N10       29.83
PHILIP         CLOUDY    56  54  93 N8        29.80S
PINE RIDGE     LGT RAIN  53  50  89 N10       29.81S
WINNER         LGT RAIN  58  56  93 NE6       29.78R
$$

SDZ004>011-016>023-039-040-251500-
NORTHEAST SOUTH DAKOTA

CITY           SKY/WX    TMP DP  RH WIND       PRES   REMARKS
ABERDEEN       CLOUDY    58  56  93 NE12      29.77R
WATERTOWN      CLOUDY    58  55  90 N8        29.73S
BROOKINGS      CLOUDY    57  55  94 W6        29.75F
$$

SDZ017-020-022-023-036>040-048>070-251500-
SOUTHEAST SOUTH DAKOTA

CITY           SKY/WX    TMP DP  RH WIND       PRES   REMARKS
SIOUX FALLS    CLOUDY    61  57  87 NW6       29.75S
HURON          CLOUDY    59  58  96 N7        29.75F FOG
CHAMBERLAIN    CLOUDY    56  56  98 CALM      29.78R FOG
MITCHELL       CLOUDY    59  58  96 NW7       29.77R
YANKTON        CLOUDY    59  57  94 N3        29.76R
$$

ABBREVIATIONS USED IN REMARKS
   TC - TEMPERATURE IN CELSIUS
  WCI - WIND CHILL INDEX
   HX - HEAT INDEX
  VSB - VISIBILITY




USA.gov is the U.S. government's official web portal to all federal, state and local government web resources and services.